Погода в Посёлке Садовом

Россия / Калининградская область     54°28′38″N   21°55′18″E
темп.,
°C
ветер,
м/с
пор.,
м/с
влажн.,
%
обл.,
%
осадки,
мм/ч
давл.,
гПа
погр.,
м
13 августа, сб
сб1323:00+17в358825 0.0 102391
02:00+16в358974 0.0 102375
05:00+16всв359056 0.0 102290
08:00+20всв48736 0.0 1021286
11:00+25в46595 0.0 1021827
14:00+27всв44525 0.0 10201155
17:00+26всв45566 0.0 10191062
20:00+20св36810 0.0 1019104
14 августа, вс
вс1423:00+17всв37840 0.0 1019111
02:00+16всв35880 0.0 101883
05:00+14всв35895 0.0 101790
08:00+19всв477063 0.0 1017266
11:00+24всв465993 0.0 1016812
14:00+26всв5658100 0.0 10151152
17:00+25всв5666100 0.0 10141038
20:00+20всв388765 0.0 1013169
15 августа, пн
пн1523:00+18всв489670 0.4 1013194
02:00+18вюв229699 1.9 101249
05:00+18вюв239271 0.4 101255
08:00+21вюв368382 0.4 1012256
11:00+28вюв575679 0.0 1011866
14:00+29вюв564880 0.0 10111362
17:00+28вюв5754100 0.0 10101086
20:00+22вюв397798 0.0 1010190
16 августа, вт
вт1623:00+23юв41359100 0.0 1011378
02:00+22вюв3105899 0.0 1011300
05:00+20вюв367141 0.0 1011105
08:00+23вюв48705 0.1 1011282
11:00+28вюв58509 0.0 1010774
14:00+31вюв46405 0.0 10101564
17:00+31вюв35475 0.0 10101416
20:00+25вюв49675 0.0 1011205
17 августа, ср
ср1723:00+22ююв410757 0.4 1012213
02:00+19вюв228612 0.8 101225
05:00+17юв22855 0.0 101230
08:00+22юв357019 0.0 1013232
11:00+27вюв23455 0.0 1013842
14:00+29в33414 0.0 10131369
17:00+29в34460 0.0 10131258
20:00+22в37710 0.0 1013121